OH6DL-15 Weather Reports


time (UTC)temp
C
wind
direction
speed
KPH
gust
KPH
rain 1hr
cm
rain 24hr
cm
rain mn
cm
humidity
%
barometer
mb
20260507080903 7 298 4.8 9.7 0.00 0.00 0.00 44 1015.0
20260507080004 7 291 3.2 9.7 0.00 0.00 0.00 46 1014.9
20260507075403 7 288 3.2 9.7 0.00 0.00 0.00 50 1015.1
20260507074503 7 295 4.8 9.7 0.00 0.00 0.00 50 1015.1
20260507073603 7 295 6.4 11.3 0.00 0.00 0.00 50 1015.0
20260507072917 7 280 3.2 6.4 0.00 0.00 0.00 51 1014.8
20260507071804 7 269 3.2 11.3 0.00 0.00 0.00 47 1014.8
20260507070903 7 269 6.4 11.3 0.00 0.00 0.00 47 1014.7
20260507070008 7 264 3.2 9.7 0.00 0.00 0.00 48 1014.8
20260507065403 7 275 3.2 6.4 0.00 0.00 0.00 49 1014.9
20260507064503 6 292 3.2 3.2 0.00 0.00 0.00 57 1015.1
20260507063815 6 299 3.2 6.4 0.00 0.00 0.00 59 1014.9
20260507062703 6 319 3.2 3.2 0.00 0.00 0.00 61 1015.0
20260507061803 7 43 0.0 3.2 0.00 0.00 0.00 60 1014.8
20260507060903 6 57 3.2 6.4 0.00 0.00 0.00 59 1014.8
20260507060003 7 70 3.2 6.4 0.00 0.00 0.00 53 1014.8
20260507055403 7 74 0.0 6.4 0.00 0.00 0.00 53 1014.8
20260507054713 7 78 3.2 6.4 0.00 0.00 0.00 54 1014.7
20260507053603 6 88 1.6 6.4 0.00 0.00 0.00 56 1014.7
20260507052703 5 118 3.2 6.4 0.00 0.00 0.00 64 1014.6
20260507051803 5 108 3.2 6.4 0.00 0.00 0.00 62 1014.7
20260507050903 5 101 0.0 3.2 0.00 0.00 0.00 65 1014.9
20260507050003 5 88 0.0 3.2 0.00 0.00 0.00 68 1014.9
20260507045616 5 90 0.0 3.2 0.00 0.00 0.00 69 1014.7
20260507044503 3 90 0.0 3.2 0.00 0.00 0.00 75 1015.1
20260507043816 2 67 0.0 3.2 0.00 0.00 0.00 80 1014.8
20260507042703 1 90 0.0 3.2 0.00 0.00 0.00 88 1014.9
20260507041803 0 0 0.0 0.0 0.00 0.00 0.00 92 1015.1
20260507040903 0 0 0.0 0.0 0.00 0.00 0.00 96 1015.0
20260507040004 -1 84 0.0 3.2 0.00 0.00 0.00 98 1015.2
20260507035403 -1 79 0.0 3.2 0.00 0.00 0.00 98 1014.9
20260507034503 -1 87 1.6 3.2 0.00 0.00 0.00 98 1014.9
20260507033603 -1 0 0.0 0.0 0.00 0.00 0.00 99 1015.1
20260507032703 -1 90 0.0 3.2 0.00 0.00 0.00 99 1015.0
20260507031803 -2 0 0.0 0.0 0.00 0.00 0.00 99 1014.9
20260507030903 -2 90 0.0 3.2 0.00 0.00 0.00 99 1015.0
20260507030003 -2 0 0.0 0.0 0.00 0.00 0.00 98 1015.0
20260507025613 -2 90 0.0 3.2 0.00 0.00 0.00 98 1015.1
20260507024715 -2 90 0.0 3.2 0.00 0.00 0.00 98 1014.9
20260507023603 -2 95 1.6 6.4 0.00 0.00 0.00 98 1014.8
20260507022703 -2 84 3.2 3.2 0.00 0.00 0.00 98 1014.8
20260507021803 -2 45 0.0 3.2 0.00 0.00 0.00 98 1014.6
20260507020903 -2 45 0.0 3.2 0.00 0.00 0.00 98 1014.9
20260507020003 -2 45 3.2 6.4 0.00 0.00 0.00 98 1014.5
20260507015403 -2 39 3.2 6.4 0.00 0.00 0.00 98 1014.6
20260507014503 -2 22 0.0 3.2 0.00 0.00 0.00 97 1014.6
20260507013603 -2 22 0.0 3.2 0.00 0.00 0.00 98 1014.5
20260507012915 -2 22 0.0 3.2 0.00 0.00 0.00 98 1014.7
20260507011803 -2 22 0.0 3.2 0.00 0.00 0.00 97 1014.5
20260507010903 -2 22 0.0 3.2 0.00 0.00 0.00 97 1014.4
20260507010003 -2 22 0.0 3.2 0.00 0.00 0.00 96 1014.3
20260507005403 -1 22 1.6 3.2 0.00 0.00 0.00 96 1014.2
20260507004504 -1 22 1.6 3.2 0.00 0.00 0.00 95 1014.4
20260507003603 -1 0 0.0 0.0 0.00 0.00 0.00 95 1014.2
20260507002703 -1 22 0.0 3.2 0.00 0.00 0.00 94 1014.0
20260507001803 -1 22 1.6 3.2 0.00 0.00 0.00 91 1014.1
20260507000903 -1 0 0.0 0.0 0.00 0.00 0.00 93 1013.9
20260507000004 -1 22 0.0 3.2 0.00 0.00 0.00 94 1014.0
20260506235403 -1 22 1.6 3.2 0.00 0.00 0.00 95 1014.3
20260506234503 -1 22 0.0 3.2 0.00 0.00 0.00 94 1013.7
20260506233603 -1 22 0.0 3.2 0.00 0.00 0.00 93 1013.8
20260506232703 0 5 1.6 3.2 0.00 0.00 0.00 92 1013.8
20260506232014 -1 360 3.2 3.2 0.00 0.00 0.00 90 1013.8
20260506230903 0 360 1.6 3.2 0.00 0.00 0.00 92 1013.8
20260506230003 0 337 0.0 3.2 0.00 0.00 0.00 91 1013.8
20260506225615 0 337 0.0 3.2 0.00 0.00 0.00 91 1013.7
20260506224503 0 337 3.2 3.2 0.00 0.00 0.00 90 1013.8
20260506223815 0 0 0.0 0.0 0.00 0.00 0.00 87 1013.6
20260506222703 0 337 0.0 3.2 0.00 0.00 0.00 85 1013.6
20260506221803 0 309 0.0 3.2 0.00 0.00 0.00 84 1013.6
20260506220903 0 292 0.0 3.2 0.00 0.00 0.00 85 1013.4
20260506220003 0 292 0.0 3.2 0.00 0.00 0.00 80 1013.4
20260506215404 1 292 0.0 3.2 0.00 0.00 0.00 78 1013.4
20260506214503 1 292 0.0 3.2 0.00 0.00 0.00 78 1013.3
20260506213816 1 292 1.6 3.2 0.00 0.00 0.00 79 1013.3
20260506212703 1 0 0.0 0.0 0.00 0.00 0.00 76 1013.2
20260506212015 2 292 0.0 3.2 0.00 0.00 0.00 75 1013.4
20260506210903 2 277 0.0 3.2 0.00 0.00 0.00 73 1013.1
20260506210215 2 272 1.6 3.2 0.00 0.00 0.00 71 1012.9
20260506205403 3 274 1.6 3.2 0.00 0.00 0.00 66 1013.3
20260506204503 3 274 1.6 3.2 0.00 0.00 0.00 63 1013.3
20260506203603 3 284 1.6 3.2 0.00 0.00 0.00 63 1013.2
20260506202703 3 270 0.0 3.2 0.00 0.00 0.00 64 1013.1
20260506201803 3 0 0.0 0.0 0.00 0.00 0.00 65 1013.1
20260506200903 3 270 0.0 3.2 0.00 0.00 0.00 67 1012.8
20260506200216 3 0 0.0 0.0 0.00 0.00 0.00 68 1013.0
20260506195617 3 280 0.0 3.2 0.00 0.00 0.00 65 1012.7
20260506194714 3 272 0.0 3.2 0.00 0.00 0.00 63 1012.6
20260506193603 3 284 0.0 6.4 0.00 0.00 0.00 62 1012.5
20260506192703 4 288 0.0 6.4 0.00 0.00 0.00 61 1012.9
20260506192017 5 289 3.2 6.4 0.00 0.00 0.00 60 1012.5
20260506190903 5 278 0.0 3.2 0.00 0.00 0.00 59 1012.4
20260506190004 6 287 3.2 6.4 0.00 0.00 0.00 57 1012.4
20260506185403 6 289 3.2 6.4 0.00 0.00 0.00 57 1012.3
20260506184503 6 302 3.2 6.4 0.00 0.00 0.00 55 1012.5
20260506183603 6 305 3.2 6.4 0.00 0.00 0.00 57 1012.3
20260506182915 6 304 3.2 6.4 0.00 0.00 0.00 53 1012.1
20260506181803 7 312 3.2 6.4 0.00 0.00 0.00 51 1012.1
20260506180903 7 311 3.2 6.4 0.00 0.00 0.00 49 1011.9
20260506180004 7 307 3.2 6.4 0.00 0.00 0.00 49 1011.9
20260506175403 7 307 3.2 6.4 0.00 0.00 0.00 50 1011.7
20260506174503 7 312 3.2 9.7 0.00 0.00 0.00 53 1011.8
20260506173603 7 308 3.2 6.4 0.00 0.00 0.00 48 1011.9
20260506172703 7 313 3.2 9.7 0.00 0.00 0.00 52 1011.7
20260506172013 7 314 3.2 6.4 0.00 0.00 0.00 52 1011.4
20260506170903 8 318 3.2 9.7 0.00 0.00 0.00 45 1011.6
20260506170004 8 326 3.2 11.3 0.00 0.00 0.00 44 1011.5
20260506165403 8 316 6.4 9.7 0.00 0.00 0.00 47 1011.4
20260506164503 8 311 4.8 9.7 0.00 0.00 0.00 43 1011.2
20260506163603 8 314 4.8 9.7 0.00 0.00 0.00 45 1011.4
20260506162916 8 313 3.2 9.7 0.00 0.00 0.00 45 1011.1
20260506161803 8 311 3.2 9.7 0.00 0.00 0.00 44 1011.2
20260506160903 8 323 4.8 11.3 0.00 0.00 0.00 46 1011.1
20260506160213 8 319 6.4 11.3 0.00 0.00 0.00 44 1011.2
20260506155403 9 310 3.2 12.9 0.00 0.00 0.00 43 1011.1
20260506154503 9 313 4.8 12.9 0.00 0.00 0.00 41 1011.0
20260506153603 9 317 3.2 9.7 0.00 0.00 0.00 41 1011.1
20260506152703 9 316 3.2 11.3 0.00 0.00 0.00 42 1011.0
20260506151803 9 307 4.8 11.3 0.00 0.00 0.00 41 1010.9
20260506151116 8 317 6.4 17.7 0.00 0.00 0.00 37 1011.0
20260506150003 8 317 6.4 12.9 0.00 0.00 0.00 41 1011.0
20260506145403 9 319 4.8 11.3 0.00 0.00 0.00 36 1011.1
20260506144503 9 321 6.4 12.9 0.00 0.00 0.00 41 1010.9
20260506143603 8 305 4.8 17.7 0.00 0.00 0.00 43 1011.0
20260506142703 8 304 6.4 17.7 0.00 0.00 0.00 42 1010.9
20260506141803 9 310 4.8 12.9 0.00 0.00 0.00 43 1010.7
20260506141117 8 309 8.0 11.3 0.00 0.00 0.00 42 1010.8
20260506140003 9 316 6.4 12.9 0.00 0.00 0.00 39 1010.8
20260506135403 9 315 6.4 14.5 0.00 0.00 0.00 41 1010.8
20260506134503 8 315 6.4 17.7 0.00 0.00 0.00 41 1010.8
20260506133603 8 306 4.8 17.7 0.00 0.00 0.00 37 1010.7
20260506132703 8 303 4.8 14.5 0.00 0.00 0.00 37 1010.6
20260506131804 8 300 8.0 17.7 0.00 0.00 0.00 39 1010.5
20260506130903 8 311 8.0 17.7 0.00 0.00 0.00 36 1010.4
20260506130215 8 308 8.0 12.9 0.00 0.00 0.00 42 1010.3
20260506125403 8 317 6.4 17.7 0.00 0.00 0.00 39 1010.2
20260506124503 8 312 9.7 17.7 0.00 0.00 0.00 41 1010.3
20260506123603 8 316 6.4 12.9 0.00 0.00 0.00 44 1010.4
20260506122703 8 313 6.4 12.9 0.00 0.00 0.00 41 1010.4
20260506122016 8 316 8.0 14.5 0.00 0.00 0.00 43 1010.5
20260506120903 8 306 6.4 17.7 0.00 0.00 0.00 41 1010.1
20260506120004 8 304 6.4 24.1 0.00 0.00 0.00 43 1010.4
20260506115403 8 323 6.4 12.9 0.00 0.00 0.00 43 1010.2
20260506114503 8 312 8.0 12.9 0.00 0.00 0.00 44 1010.1
20260506113603 7 319 6.4 14.5 0.00 0.00 0.00 46 1010.1
20260506112703 8 309 4.8 12.9 0.00 0.00 0.00 41 1009.8
20260506111803 8 309 6.4 12.9 0.00 0.00 0.00 43 1009.9
20260506110903 8 314 6.4 12.9 0.00 0.00 0.00 43 1009.9
20260506110003 7 311 6.4 12.9 0.00 0.00 0.00 50 1009.8
20260506105613 8 312 6.4 12.9 0.00 0.00 0.00 48 1009.8
20260506104503 7 313 6.4 12.9 0.00 0.00 0.00 46 1010.0
20260506103603 7 311 8.0 12.9 0.00 0.00 0.00 50 1009.9
20260506102703 7 308 6.4 17.7 0.00 0.00 0.00 47 1009.8
20260506101803 7 311 8.0 17.7 0.00 0.00 0.00 46 1009.6
20260506100903 7 313 4.8 12.9 0.00 0.00 0.00 48 1009.7
20260506100217 7 308 6.4 17.7 0.00 0.00 0.00 45 1009.7
20260506095403 7 309 6.4 14.5 0.00 0.00 0.00 50 1009.6
20260506094503 7 312 8.0 17.7 0.00 0.00 0.00 50 1009.5
20260506093603 6 310 4.8 12.9 0.00 0.00 0.00 53 1009.4
20260506092703 7 309 4.8 14.5 0.00 0.00 0.00 57 1009.5
20260506091803 7 303 6.4 17.7 0.00 0.00 0.00 51 1009.2
20260506091115 7 316 9.7 14.5 0.00 0.00 0.00 50 1009.2
20260506090003 6 314 6.4 17.7 0.00 0.00 0.00 51 1009.5
20260506085403 6 309 8.0 17.7 0.00 0.00 0.00 53 1009.3
20260506084503 6 317 6.4 12.9 0.00 0.00 0.00 52 1009.3
20260506083603 6 309 6.4 14.5 0.00 0.00 0.00 52 1008.9
20260506082916 6 311 8.0 14.5 0.00 0.00 0.00 52 1008.9
20260506081803 6 313 6.4 20.9 0.00 0.00 0.00 53 1009.0